Weather History for Fort Smith, AR

Change the Weather History Date:

Wednesday, February 29, 2012

  Actual Average Record
Temperature  
Mean Temperature 60 °F -  
Max Temperature 73 °F 60 °F 86 °F (2006)
Min Temperature 46 °F 37 °F 15 °F (1890)
Degree Days  
Heating Degree Days 5    
Month to date heating degree days 492  
Growing Degree Days 10 (Base 50)    
Moisture  
Dew Point 39 °F    
Average Humidity 43    
Maximum Humidity 64    
Minimum Humidity 21    
Precipitation  
Precipitation 0.13 in - - ()
Month to date precipitation 2.18  
Year to date precipitation 6.60  
Sea Level Pressure  
Sea Level Pressure 29.89 in    
Wind  
Wind Speed 11 mph (WSW)    
Max Wind Speed 26 mph    
Max Gust Speed 35 mph    
Visibility 10 miles    
Events Thunderstorm    
T = Trace of Precipitation, MM = Missing Value Source: NWS Daily Summary

Daily Weather History Graph

Daily Weather History Graph

Search for Another Location

Airport:

Trip Planner

Search our weather history database for the weather conditions in past years. The results will help you decide how hot, cold, wet, or windy it might be!

Date:

Astronomy

Feb. 29, 2012 Rise Set
Actual Time 6:47 AM CST 6:12 PM CST
Civil Twilight 6:22 AM CST 6:38 PM CST
Nautical Twilight 5:52 AM CST 7:07 PM CST
Astronomical Twilight 5:23 AM CST 7:36 PM CST
Moon 10:55 AM CST (2/29) 12:43 AM CST (2/29)
Length of Visible Light 12h 15m
Length of Day
11h 24m
Waxing Crescent, 47% of the Moon is Illuminated
Feb 29
Waxing Crescent
Feb 29
First Quarter
Mar 8
Full
Mar 14
Last Quarter
Mar 22
New

Hourly Weather History & Observations

Time (CST) Temp. Dew Point Humidity Pressure Visibility Wind Dir Wind Speed Gust Speed Precip Events Conditions
12:53 AM 73.0 °F 61.0 °F 66% 29.78 in 10.0 mi SW 20.7 mph 31.1 mph N/A   Clear
1:50 AM 73.4 °F 60.8 °F 65% 29.80 in 10.0 mi SW 18.4 mph - N/A Thunderstorm Scattered Clouds
1:53 AM 73.0 °F 61.0 °F 66% 29.79 in 10.0 mi SW 17.3 mph - N/A Thunderstorm Mostly Cloudy
2:36 AM 68.0 °F 62.6 °F 83% 29.82 in 10.0 mi WSW 16.1 mph 25.3 mph 0.13 in   Scattered Clouds
2:53 AM 68.0 °F 55.9 °F 65% 29.82 in 10.0 mi WSW 16.1 mph - 0.13 in   Scattered Clouds
3:53 AM 64.0 °F 48.0 °F 56% 29.83 in 10.0 mi WSW 11.5 mph - N/A   Partly Cloudy
4:53 AM 62.1 °F 46.9 °F 58% 29.85 in 10.0 mi WSW 9.2 mph - N/A   Mostly Cloudy
5:53 AM 61.0 °F 44.1 °F 54% 29.87 in 10.0 mi WSW 13.8 mph - N/A   Clear
6:53 AM 60.1 °F 35.1 °F 39% 29.88 in 10.0 mi West 15.0 mph - N/A   Clear
7:53 AM 59.0 °F 34.0 °F 39% 29.90 in 10.0 mi West 13.8 mph - N/A   Clear
8:53 AM 62.1 °F 30.9 °F 31% 29.92 in 10.0 mi West 18.4 mph - N/A   Clear
9:53 AM 63.0 °F 28.0 °F 27% 29.94 in 10.0 mi West 18.4 mph 23.0 mph N/A   Clear
10:53 AM 66.0 °F 27.0 °F 23% 29.94 in 10.0 mi WSW 12.7 mph - N/A   Clear
11:53 AM 66.9 °F 28.9 °F 24% 29.95 in 10.0 mi West 17.3 mph 23.0 mph N/A   Clear
12:53 PM 68.0 °F 27.0 °F 21% 29.92 in 10.0 mi West 15.0 mph - N/A   Clear
1:53 PM 69.1 °F 28.9 °F 22% 29.91 in 10.0 mi West 13.8 mph - N/A   Clear
2:53 PM 69.1 °F 32.0 °F 25% 29.90 in 10.0 mi West 11.5 mph 20.7 mph N/A   Clear
3:53 PM 69.1 °F 30.9 °F 24% 29.89 in 10.0 mi West 15.0 mph - N/A   Clear
4:53 PM 68.0 °F 30.0 °F 24% 29.89 in 10.0 mi West 12.7 mph - N/A   Clear
5:53 PM 64.0 °F 30.9 °F 29% 29.90 in 10.0 mi West 10.4 mph - N/A   Clear
6:53 PM 59.0 °F 32.0 °F 36% 29.92 in 10.0 mi WNW 4.6 mph - N/A   Clear
7:53 PM 57.0 °F 34.0 °F 42% 29.91 in 10.0 mi West 4.6 mph - N/A   Clear
8:53 PM 54.0 °F 36.0 °F 51% 29.92 in 10.0 mi Calm Calm - N/A   Clear
9:53 PM 51.1 °F 35.1 °F 54% 29.93 in 10.0 mi Calm Calm - N/A   Clear
10:53 PM 48.9 °F 36.0 °F 61% 29.94 in 10.0 mi Calm Calm - N/A   Clear
11:53 PM 46.0 °F 36.0 °F 68% 29.94 in 10.0 mi Calm Calm - N/A   Clear